This demonstration page uses our WeatherBlox Daily Observations layout. Learn more.

Left ArrowRight Arrow

41.12389, -100.76542

Hourly Observations for August 31, 2017

Temp ( °F °C ) Dew Point ( °F °C ) Humidity (%) Winds ( mph kmh ) Pressure ( in mb ) Visibility ( mi km ) Precip ( " mm )
12:53 am 00:53 Clear 64 17.8 61 16.1 90 90 E 9 15 30.06 1018 10 16 0.00 0.00
1:53 am 01:53 Clear 67 19.4 58 14.4 73 73 SSE 8 13 30.04 1017 10 16 0.00 0.00
2:53 am 02:53 Clear 63 17.2 57 13.9 81 81 SSE 7 11 30.05 1018 10 16 0.00 0.00
3:53 am 03:53 Clear 62 16.7 56 13.3 80 80 ESE 7 11 30.06 1018 10 16 0.00 0.00
4:53 am 04:53 Clear 61 16.1 56 13.3 84 84 ESE 8 13 30.06 1018 10 16 0.00 0.00
5:53 am 05:53 Clear 58 14.4 56 13.3 93 93 ESE 8 13 30.07 1018 10 16 0.00 0.00
6:53 am 06:53 Clear 57 13.9 55 12.8 93 93 ESE 5 7 30.08 1019 10 16 0.00 0.00
7:53 am 07:53 Sunny 58 14.4 56 13.3 93 93 E 6 9 30.09 1019 10 16 0.00 0.00
8:53 am 08:53 Sunny 63 17.2 58 14.4 84 84 ESE 8 13 30.09 1019 10 16 0.00 0.00
9:53 am 09:53 Sunny 68 20 60 15.6 76 76 ESE 8 13 30.07 1018 10 16 0.00 0.00
10:53 am 10:53 Sunny 74 23.3 59 15 60 60 SSE 9 15 30.08 1019 10 16 0.00 0.00
11:53 am 11:53 Sunny 77 25 58 14.4 52 52 S 13 20 30.07 1018 10 16 0.00 0.00
12:53 pm 12:53 Sunny 81 27.2 56 13.3 42 42 SSE 6 9 30.04 1017 10 16 0.00 0.00
1:53 pm 13:53 Sunny 83 28.3 58 14.4 43 43 SSE 8 13 30.02 1017 10 16 0.00 0.00
2:53 pm 14:53 Sunny 84 28.9 55 12.8 37 37 S 15 24 30.01 1016 10 16 0.00 0.00
3:53 pm 15:53 Sunny 82 27.8 55 12.8 40 40 SE 12 19 29.99 1016 10 16 0.00 0.00
4:53 pm 16:53 Sunny 83 28.3 58 14.4 43 43 SE 10 17 29.99 1016 10 16 0.00 0.00
5:53 pm 17:53 Sunny 80 26.7 60 15.6 51 51 ESE 7 11 30.01 1016 10 16 0.00 0.00
6:53 pm 18:53 Sunny 77 25 58 14.4 52 52 SE 10 17 29.99 1016 10 16 0.00 0.00
7:53 pm 19:53 Sunny 75 23.9 57 13.9 54 54 SE 10 17 29.98 1015 10 16 0.00 0.00
8:53 pm 20:53 Clear 70 21.1 59 15 68 68 ESE 6 9 30.00 1016 10 16 0.00 0.00
9:53 pm 21:53 Clear 72 22.2 59 15 64 64 ESE 9 15 30.00 1016 10 16 0.00 0.00
10:53 pm 22:53 Clear 70 21.1 59 15 68 68 SE 9 15 29.99 1016 10 16 0.00 0.00
11:53 pm 23:53 Clear 70 21.1 58 14.4 66 66 SE 9 15 29.98 1015 10 16 0.00 0.00

Powered by AerisWeather